GAP2203 RPLL-RPVR

Flight info

Callsign GAP2203
Flight time 0h 47m
Altitude 29000
Route VERDE4V VERDE W24 TAPER TR18 KLO
Aircraft A320/M-SDE3FGHIRWY/LB1

Departure

Time 2026-04-23 21:06
Airport Ninoy Aquino International Airport (RPLL)

Arrival

Time 2026-04-23 21:53
Airport Roxas Airport (RPVR)
Time Latitude Longitude Altitude Speed Heading
2026-04-23 20:45 14.50898 121.01363 84 ft 0 kts 329°
2026-04-23 20:54 14.50897 121.01363 84 ft 0 kts 329°
2026-04-23 20:55 14.50886 121.01369 84 ft 2 kts 329°
2026-04-23 20:56 14.50873 121.01378 84 ft 2 kts 329°
2026-04-23 20:56 14.50860 121.01386 84 ft 2 kts 329°
2026-04-23 20:56 14.50852 121.01391 84 ft 1 kts 329°
2026-04-23 20:56 14.50840 121.01399 84 ft 2 kts 311°
2026-04-23 20:57 14.50832 121.01411 84 ft 2 kts 297°
2026-04-23 20:57 14.50827 121.01427 84 ft 2 kts 279°
2026-04-23 20:57 14.50826 121.01443 84 ft 2 kts 263°
2026-04-23 20:57 14.50830 121.01458 84 ft 2 kts 246°
2026-04-23 20:58 14.50833 121.01464 84 ft 1 kts 237°
2026-04-23 20:58 14.50835 121.01467 84 ft 0 kts 239°
2026-04-23 21:00 14.50834 121.01466 84 ft 0 kts 239°
2026-04-23 21:00 14.50829 121.01457 84 ft 2 kts 239°
2026-04-23 21:00 14.50816 121.01433 84 ft 4 kts 240°
2026-04-23 21:01 14.50795 121.01395 84 ft 7 kts 240°
2026-04-23 21:01 14.50768 121.01344 84 ft 8 kts 241°
2026-04-23 21:01 14.50721 121.01314 84 ft 9 kts 165°
2026-04-23 21:01 14.50660 121.01301 84 ft 10 kts 232°
2026-04-23 21:02 14.50624 121.01236 84 ft 10 kts 240°
2026-04-23 21:02 14.50584 121.01166 84 ft 11 kts 240°
2026-04-23 21:02 14.50543 121.01092 84 ft 12 kts 240°
2026-04-23 21:02 14.50499 121.01013 84 ft 12 kts 240°
2026-04-23 21:03 14.50454 121.00932 84 ft 13 kts 240°
2026-04-23 21:03 14.50408 121.00849 84 ft 13 kts 240°
2026-04-23 21:03 14.50360 121.00764 84 ft 13 kts 240°
2026-04-23 21:03 14.50312 121.00674 84 ft 14 kts 240°
2026-04-23 21:04 14.50263 121.00586 84 ft 14 kts 239°
2026-04-23 21:04 14.50212 121.00495 84 ft 13 kts 240°
2026-04-23 21:04 14.50172 121.00423 84 ft 10 kts 240°
2026-04-23 21:04 14.50134 121.00365 84 ft 9 kts 214°
2026-04-23 21:05 14.50079 121.00378 84 ft 8 kts 149°
2026-04-23 21:05 14.50031 121.00407 84 ft 5 kts 150°
2026-04-23 21:05 14.50022 121.00440 84 ft 4 kts 71°
2026-04-23 21:05 14.50039 121.00472 84 ft 8 kts 60°
2026-04-23 21:06 14.50166 121.00701 84 ft 74 kts 61°
2026-04-23 21:06 14.50536 121.01366 84 ft 138 kts 60°
2026-04-23 21:06 14.51065 121.02308 441 ft 155 kts 60°
2026-04-23 21:06 14.51610 121.03261 1019 ft 159 kts 60°
2026-04-23 21:07 14.52159 121.04253 1650 ft 162 kts 62°
2026-04-23 21:07 14.52698 121.05254 2261 ft 162 kts 62°
2026-04-23 21:07 14.53252 121.06267 2808 ft 163 kts 62°
2026-04-23 21:07 14.53817 121.07295 3325 ft 167 kts 62°
2026-04-23 21:08 14.54420 121.08384 3701 ft 184 kts 62°
2026-04-23 21:08 14.55084 121.09584 4080 ft 203 kts 62°
2026-04-23 21:08 14.55819 121.10908 4490 ft 223 kts 62°
2026-04-23 21:08 14.56489 121.12389 5050 ft 235 kts 81°
2026-04-23 21:09 14.56374 121.14030 5809 ft 234 kts 115°
2026-04-23 21:09 14.55453 121.15378 6661 ft 231 kts 137°
2026-04-23 21:09 14.54313 121.16531 7403 ft 237 kts 139°
2026-04-23 21:09 14.53119 121.17713 8162 ft 243 kts 139°
2026-04-23 21:10 14.51905 121.18934 8922 ft 249 kts 138°
2026-04-23 21:10 14.50658 121.20207 9709 ft 254 kts 138°
2026-04-23 21:10 14.49406 121.21494 10459 ft 260 kts 137°
2026-04-23 21:10 14.48116 121.22825 11176 ft 266 kts 137°
2026-04-23 21:11 14.46651 121.23946 11880 ft 268 kts 162°
2026-04-23 21:11 14.44844 121.24192 12611 ft 264 kts 194°
2026-04-23 21:11 14.43214 121.23480 13382 ft 256 kts 223°
2026-04-23 21:11 14.41984 121.22173 14193 ft 254 kts 232°
2026-04-23 21:12 14.40839 121.20802 14954 ft 257 kts 232°
2026-04-23 21:12 14.39676 121.19415 15711 ft 260 kts 231°
2026-04-23 21:12 14.38477 121.18011 16467 ft 262 kts 230°
2026-04-23 21:12 14.37274 121.16616 17195 ft 264 kts 230°
2026-04-23 21:13 14.36048 121.15206 17906 ft 267 kts 229°
2026-04-23 21:13 14.34816 121.13796 18594 ft 270 kts 229°
2026-04-23 21:13 14.33550 121.12348 19276 ft 272 kts 228°
2026-04-23 21:13 14.32294 121.10913 19925 ft 275 kts 228°
2026-04-23 21:14 14.30986 121.09428 20442 ft 284 kts 229°
2026-04-23 21:14 14.29640 121.07893 20767 ft 298 kts 229°
2026-04-23 21:14 14.28173 121.06364 21288 ft 305 kts 223°
2026-04-23 21:14 14.26517 121.04991 21896 ft 309 kts 216°
2026-04-23 21:15 14.24752 121.03725 22494 ft 312 kts 215°
2026-04-23 21:15 14.22962 121.02477 23072 ft 315 kts 214°
2026-04-23 21:15 14.21147 121.01213 23636 ft 318 kts 214°
2026-04-23 21:15 14.19312 120.99931 24186 ft 322 kts 214°
2026-04-23 21:16 14.17446 120.98621 24736 ft 325 kts 214°
2026-04-23 21:16 14.15577 120.97308 25266 ft 328 kts 214°
2026-04-23 21:16 14.13706 120.95992 25774 ft 331 kts 214°
2026-04-23 21:16 14.11808 120.94656 26279 ft 334 kts 214°
2026-04-23 21:17 14.09873 120.93292 26773 ft 337 kts 214°
2026-04-23 21:17 14.07939 120.91930 27250 ft 340 kts 214°
2026-04-23 21:17 14.05974 120.90589 27705 ft 343 kts 207°
2026-04-23 21:17 14.03736 120.89820 28102 ft 346 kts 184°
2026-04-23 21:18 14.01360 120.89999 28540 ft 346 kts 166°
2026-04-23 21:18 13.99016 120.90599 28872 ft 352 kts 164°
2026-04-23 21:18 13.96626 120.91254 28923 ft 367 kts 164°
2026-04-23 21:18 13.94084 120.91941 28935 ft 383 kts 164°
2026-04-23 21:19 13.91470 120.92633 28939 ft 398 kts 165°
2026-04-23 21:19 13.88731 120.93348 28940 ft 413 kts 165°
2026-04-23 21:19 13.85940 120.94066 28939 ft 426 kts 165°
2026-04-23 21:19 13.82997 120.94820 28939 ft 436 kts 165°
2026-04-23 21:20 13.77097 120.96330 28936 ft 439 kts 165°
2026-04-23 21:20 13.71221 120.97836 28935 ft 439 kts 165°
2026-04-23 21:21 13.65291 120.99356 28935 ft 439 kts 165°
2026-04-23 21:21 13.59395 121.00867 28935 ft 438 kts 165°
2026-04-23 21:22 13.53539 121.02432 28934 ft 437 kts 161°
2026-04-23 21:22 13.48005 121.04903 28935 ft 435 kts 149°
2026-04-23 21:23 13.42985 121.08297 28936 ft 433 kts 144°
2026-04-23 21:23 13.38063 121.11819 28937 ft 428 kts 146°
2026-04-23 21:24 13.33198 121.15237 28935 ft 426 kts 146°
2026-04-23 21:24 13.28271 121.18681 28935 ft 426 kts 146°
2026-04-23 21:25 13.23347 121.22128 28935 ft 427 kts 146°
2026-04-23 21:25 13.18446 121.25560 28935 ft 427 kts 146°
2026-04-23 21:26 13.13547 121.28991 28935 ft 427 kts 146°
2026-04-23 21:26 13.08654 121.32417 28934 ft 428 kts 146°
2026-04-23 21:27 13.03728 121.35867 28934 ft 430 kts 146°
2026-04-23 21:27 12.98803 121.39312 28934 ft 432 kts 146°
2026-04-23 21:28 12.93827 121.42791 28934 ft 434 kts 146°
2026-04-23 21:28 12.88862 121.46262 28935 ft 434 kts 146°
2026-04-23 21:29 12.83855 121.49741 28935 ft 434 kts 147°
2026-04-23 21:29 12.78869 121.53213 28935 ft 434 kts 146°
2026-04-23 21:30 12.73894 121.56684 28935 ft 434 kts 146°
2026-04-23 21:30 12.68922 121.60153 28935 ft 435 kts 146°
2026-04-23 21:31 12.63923 121.63641 28928 ft 435 kts 146°
2026-04-23 21:31 12.61432 121.65379 28316 ft 440 kts 147°
2026-04-23 21:31 12.58912 121.67149 27530 ft 439 kts 146°
2026-04-23 21:32 12.56435 121.68891 26797 ft 439 kts 146°
2026-04-23 21:32 12.53905 121.70665 26245 ft 434 kts 147°
2026-04-23 21:32 12.51472 121.72366 25762 ft 428 kts 147°
2026-04-23 21:32 12.49027 121.74074 25273 ft 423 kts 147°
2026-04-23 21:33 12.46623 121.75750 24789 ft 418 kts 147°
2026-04-23 21:33 12.44226 121.77421 24303 ft 414 kts 147°
2026-04-23 21:33 12.41872 121.79060 23827 ft 410 kts 147°
2026-04-23 21:33 12.39533 121.80687 23349 ft 406 kts 147°
2026-04-23 21:34 12.37229 121.82302 22874 ft 403 kts 146°
2026-04-23 21:34 12.34996 121.84018 22399 ft 400 kts 143°
2026-04-23 21:34 12.32833 121.85765 21925 ft 397 kts 143°
2026-04-23 21:34 12.30704 121.87495 21455 ft 393 kts 143°
2026-04-23 21:35 12.28578 121.89224 20984 ft 390 kts 143°
2026-04-23 21:35 12.26455 121.90949 20512 ft 387 kts 143°
2026-04-23 21:35 12.24370 121.92642 20046 ft 384 kts 143°
2026-04-23 21:35 12.22281 121.94338 19579 ft 382 kts 143°
2026-04-23 21:36 12.18160 121.97681 18652 ft 376 kts 143°
2026-04-23 21:36 12.16139 121.99320 18196 ft 373 kts 143°
2026-04-23 21:36 12.14124 122.00954 17739 ft 371 kts 143°
2026-04-23 21:37 12.12099 122.02595 17280 ft 368 kts 143°
2026-04-23 21:37 12.10111 122.04205 16827 ft 366 kts 143°
2026-04-23 21:37 12.08118 122.05821 16373 ft 363 kts 143°
2026-04-23 21:37 12.06175 122.07404 15927 ft 361 kts 143°
2026-04-23 21:38 12.04222 122.09003 15478 ft 359 kts 143°
2026-04-23 21:38 12.02292 122.10582 15032 ft 356 kts 143°
2026-04-23 21:38 12.00366 122.12160 14587 ft 354 kts 143°
2026-04-23 21:38 11.98472 122.13710 14150 ft 352 kts 143°
2026-04-23 21:39 11.96570 122.15266 13710 ft 349 kts 143°
2026-04-23 21:39 11.94673 122.16818 13270 ft 347 kts 143°
2026-04-23 21:39 11.92802 122.18349 12826 ft 346 kts 143°
2026-04-23 21:39 11.90931 122.19878 12372 ft 344 kts 143°
2026-04-23 21:40 11.89086 122.21385 11922 ft 343 kts 143°
2026-04-23 21:40 11.87232 122.22890 11469 ft 341 kts 143°
2026-04-23 21:40 11.85382 122.24392 11018 ft 339 kts 143°
2026-04-23 21:40 11.83535 122.25896 10569 ft 338 kts 143°
2026-04-23 21:41 11.81731 122.27367 10219 ft 332 kts 142°
2026-04-23 21:41 11.79959 122.28816 10132 ft 317 kts 142°
2026-04-23 21:41 11.78282 122.30189 10048 ft 303 kts 142°
2026-04-23 21:41 11.76671 122.31508 9876 ft 294 kts 143°
2026-04-23 21:42 11.75085 122.32803 9520 ft 292 kts 142°
2026-04-23 21:42 11.73501 122.34094 9177 ft 290 kts 142°
2026-04-23 21:42 11.71940 122.35368 8845 ft 288 kts 142°
2026-04-23 21:42 11.70372 122.36648 8516 ft 286 kts 142°
2026-04-23 21:43 11.68896 122.37974 8208 ft 283 kts 132°
2026-04-23 21:43 11.67785 122.39597 7972 ft 278 kts 116°
2026-04-23 21:43 11.66994 122.41399 7667 ft 277 kts 112°
2026-04-23 21:43 11.66279 122.43220 7303 ft 277 kts 111°
2026-04-23 21:44 11.65562 122.45064 6966 ft 276 kts 111°
2026-04-23 21:44 11.64856 122.46863 6650 ft 275 kts 112°
2026-04-23 21:44 11.64146 122.48656 6341 ft 271 kts 112°
2026-04-23 21:44 11.63433 122.50436 6036 ft 268 kts 112°
2026-04-23 21:45 11.62737 122.52168 5738 ft 264 kts 112°
2026-04-23 21:45 11.62041 122.53900 5437 ft 261 kts 112°
2026-04-23 21:45 11.61366 122.55585 5145 ft 258 kts 112°
2026-04-23 21:45 11.60688 122.57272 4852 ft 255 kts 112°
2026-04-23 21:46 11.60013 122.58937 4564 ft 251 kts 111°
2026-04-23 21:46 11.59370 122.60531 4282 ft 238 kts 112°
2026-04-23 21:46 11.58752 122.62071 4012 ft 228 kts 112°
2026-04-23 21:46 11.58162 122.63533 3762 ft 225 kts 112°
2026-04-23 21:47 11.57564 122.65009 3509 ft 222 kts 112°
2026-04-23 21:47 11.56983 122.66455 3260 ft 218 kts 111°
2026-04-23 21:47 11.56420 122.67873 3102 ft 210 kts 112°
2026-04-23 21:47 11.55871 122.69244 3090 ft 208 kts 111°
2026-04-23 21:48 11.55325 122.70599 3058 ft 208 kts 112°
2026-04-23 21:48 11.54780 122.71953 3025 ft 208 kts 112°
2026-04-23 21:48 11.54236 122.73302 3059 ft 200 kts 112°
2026-04-23 21:48 11.53720 122.74576 2940 ft 188 kts 112°
2026-04-23 21:49 11.53237 122.75767 2808 ft 176 kts 111°
2026-04-23 21:49 11.52776 122.76911 2701 ft 174 kts 112°
2026-04-23 21:49 11.52312 122.78058 2593 ft 173 kts 111°
2026-04-23 21:49 11.51855 122.79195 2347 ft 175 kts 112°
2026-04-23 21:50 11.51397 122.80327 2170 ft 172 kts 112°
2026-04-23 21:50 11.51057 122.81486 1983 ft 169 kts 86°
2026-04-23 21:50 11.51555 122.82495 1801 ft 166 kts 31°
2026-04-23 21:50 11.52646 122.82630 1779 ft 163 kts 336°
2026-04-23 21:51 11.53388 122.81805 1773 ft 163 kts 287°
2026-04-23 21:51 11.53351 122.80660 1820 ft 165 kts 258°
2026-04-23 21:51 11.53273 122.79504 1913 ft 162 kts 289°
2026-04-23 21:51 11.53967 122.78719 1809 ft 148 kts 332°
2026-04-23 21:52 11.54904 122.78325 1445 ft 144 kts 340°
2026-04-23 21:52 11.55809 122.77947 1077 ft 141 kts 336°
2026-04-23 21:52 11.56677 122.77498 718 ft 137 kts 330°
2026-04-23 21:52 11.57473 122.76994 437 ft 136 kts 323°
2026-04-23 21:53 11.58213 122.76393 286 ft 135 kts 323°
2026-04-23 21:53 11.58978 122.75855 74 ft 134 kts 326°
2026-04-23 21:53 11.59666 122.75363 20 ft 87 kts 326°
2026-04-23 21:53 11.59993 122.75130 18 ft 45 kts 326°
2026-04-23 21:54 11.60194 122.74986 21 ft 27 kts 325°
2026-04-23 21:54 11.60302 122.74904 22 ft 15 kts 326°
2026-04-23 21:54 11.60374 122.74872 23 ft 7 kts 302°
2026-04-23 21:54 11.60337 122.74873 23 ft 8 kts 129°
2026-04-23 21:55 11.60298 122.74914 22 ft 8 kts 140°
2026-04-23 21:55 11.60237 122.74934 21 ft 9 kts 185°
2026-04-23 21:55 11.60182 122.74919 21 ft 8 kts 193°
2026-04-23 21:55 11.60141 122.74927 20 ft 4 kts 145°
2026-04-23 21:56 11.60113 122.74947 20 ft 5 kts 145°
2026-04-23 21:56 11.60092 122.74961 20 ft 2 kts 158°
2026-04-23 21:56 11.60086 122.74959 20 ft 0 kts 236°
2026-04-23 21:56 11.60086 122.74957 20 ft 0 kts 247°
2026-04-23 21:57 11.60084 122.74949 20 ft 1 kts 263°
2026-04-23 21:57 11.60083 122.74937 20 ft 2 kts 264°
2026-04-23 21:57 11.60082 122.74930 20 ft 0 kts 265°